Location: *
(35.8942°N, 23.3025°E)
Time: 11:47:46
(UTC+00:00)

X-37B - Visible Passes

Search period start: 05 December 2021 00:00
Search period end: 15 December 2021 00:00
Orbit: 330 x 341 km, 45.0° (Epoch: 20 November)

Date Brightness Start Highest point End Pass type
(mag) Time Alt. Az. Time Alt. Az. Time Alt. Az.
05 Dec 0.3 16:35:45 10° SW 16:38:35 62° SSE 16:38:46 59° ESE visible
06 Dec 1.6 16:56:17 10° W 16:58:29 37° WNW 16:58:29 37° WNW visible
07 Dec 0.5 15:41:11 10° SW 15:44:00 61° SSE 15:46:50 10° ENE visible
07 Dec 3.3 17:17:23 10° WNW 17:18:08 15° WNW 17:18:08 15° WNW visible
08 Dec 1.1 16:01:43 10° W 16:04:28 43° NNW 16:06:31 16° NE visible
09 Dec 2.2 16:22:47 10° WNW 16:25:06 21° NNW 16:26:05 18° NNE visible
10 Dec 2.7 16:44:06 10° NW 16:45:37 15° NNW 16:45:37 15° NNW visible
12 Dec 2.6 15:49:31 10° NW 15:51:18 15° N 15:53:04 10° NNE visible
13 Dec 2.6 16:10:38 10° NNW 16:12:08 13° N 16:13:03 12° NNE visible
14 Dec 2.5 16:31:11 10° NNW 16:32:40 15° N 16:32:40 15° N visible
